RH
29 29 28 28 27 26 25 25 24 23 21 19 16 13 10 9 9 10 11 12 13 14 15 15 15 15 14 13 14 15 14 14 12 8 8 8 5 4 4 4 4 4 5 5 6 8 10 11 12 13 14 16 18 18 21 25 26 29 39 47 46 48 51 51 49 48 49 50 48 49 48 48 48 47 47 45 43 47 49 49 52 52 49 47 46 47 49 47
31 30 29 29 28 28 27 26 25 24 23 22 20 18 16 12 10 9 9 10 11 11 13 14 14 15 15 14 14 14 14 14 13 9 11 12 6 4 4 3 4 4 4 5 5 7 9 11 12 12 14 16 18 19 23 28 30 31 37 44 46 50 52 53 54 52 51 51 47 47 49 50 50 51 50 45 40 42 44 44 46 48 49 48 46 45 47 46
32 31 30 30 29 28 28 27 26 25 24 23 22 21 20 18 14 11 9 8 9 10 11 11 13 14 14 14 15 14 14 14 13 11 12 11 8 6 5 3 3 3 4 4 5 6 8 10 11 12 13 16 18 19 23 29 32 34 39 43 46 50 51 54 56 53 50 49 47 45 47 51 52 53 52 46 39 38 40 40 40 41 43 47 48 46 45 45
33 33 32 31 30 29 28 28 27 26 26 24 23 22 21 20 19 16 12 9 8 9 9 10 10 12 13 14 15 15 14 13 12 12 13 10 9 8 6 4 4 4 4 4 5 6 8 9 10 12 13 15 17 19 22 26 30 34 39 44 49 50 50 53 54 51 48 48 48 47 49 53 53 54 53 48 41 37 37 38 38 37 39 44 46 47 47 43
33 33 32 32 32 31 30 29 28 27 26 26 25 24 22 21 20 19 17 14 10 8 9 9 9 9 11 12 14 15 15 14 12 13 14 12 10 8 7 5 4 4 4 4 5 6 7 9 10 11 13 15 17 19 21 23 26 28 33 44 52 52 52 54 52 50 49 47 47 48 51 53 54 54 51 46 43 39 37 37 37 37 39 44 47 49 50 44
32 32 32 32 32 32 31 31 29 28 27 26 26 25 24 22 21 20 19 18 15 11 8 8 9 8 9 10 12 15 15 14 13 14 15 15 14 12 11 8 6 4 4 4 4 6 7 8 9 11 13 14 16 18 20 21 24 24 27 38 46 49 52 53 51 51 50 47 45 46 47 48 49 50 50 47 44 42 40 38 37 37 36 40 48 50 51 48
31 30 31 31 31 31 31 31 31 30 29 28 26 25 25 24 23 21 19 19 18 16 11 8 8 8 8 8 9 12 12 11 13 18 19 17 16 16 15 12 8 5 4 4 5 6 7 8 9 10 12 14 16 18 19 20 22 23 25 32 39 45 50 51 50 50 48 45 42 40 41 43 43 45 46 45 46 46 44 40 35 38 35 31 41 51 53 51
30 30 30 30 30 30 30 30 30 30 30 30 28 26 25 24 24 23 22 21 20 20 16 11 8 8 8 7 8 8 8 12 16 19 18 16 15 15 16 15 12 7 4 4 5 5 7 7 8 10 12 13 16 18 19 19 20 21 23 28 35 42 47 49 49 48 46 42 39 38 37 37 38 42 41 40 47 49 48 44 35 36 38 31 35 48 53 52
31 31 30 30 30 30 29 29 29 29 29 29 29 27 26 25 24 23 24 23 23 22 20 16 11 8 7 7 8 6 7 13 17 18 16 14 14 13 12 14 13 8 4 4 5 6 6 7 7 9 12 13 16 18 18 19 20 21 22 24 29 38 43 47 47 45 44 41 37 36 34 31 31 37 38 38 47 51 50 48 39 34 39 35 31 42 51 52
31 32 32 32 31 31 30 28 28 28 28 28 28 27 27 27 26 25 24 25 24 23 21 19 16 12 9 7 7 6 7 11 14 16 15 14 14 12 10 11 12 9 6 5 5 6 6 6 7 8 12 14 16 18 18 19 21 22 23 23 27 35 41 45 46 44 43 40 37 34 31 29 28 32 35 37 42 47 48 48 43 35 37 40 32 35 47 52
24 28 30 32 32 32 31 30 28 28 28 27 27 26 26 27 27 27 26 25 24 24 22 21 19 16 12 9 7 7 8 9 10 13 14 13 13 13 10 11 12 9 7 7 5 5 5 6 9 11 13 15 16 18 18 18 20 22 23 24 26 32 39 43 43 42 41 38 35 33 30 28 28 30 31 35 40 44 46 46 45 38 36 41 36 32 40 48
13 17 21 25 29 30 31 31 30 29 28 27 26 26 26 26 27 28 28 26 25 24 23 22 22 20 17 12 8 9 9 8 10 12 13 13 13 13 11 13 14 8 6 7 6 5 5 8 13 15 15 16 17 18 19 19 19 21 22 22 24 28 35 41 41 39 39 36 34 32 31 30 31 31 29 31 36 41 44 44 46 42 37 40 40 32 33 42
6 8 10 14 18 22 26 28 29 29 29 27 26 26 26 26 26 27 28 28 26 25 24 24 23 22 20 13 8 9 10 9 11 12 13 14 13 13 12 15 15 9 7 7 8 6 5 11 17 18 18 20 20 19 21 22 20 20 20 21 21 25 31 37 39 38 37 35 33 32 32 31 30 29 27 26 28 33 39 42 43 43 38 38 42 36 30 34
4 4 5 6 8 11 15 19 22 25 27 27 26 26 27 27 26 26 27 28 28 27 25 24 24 23 21 14 8 8 8 10 11 11 14 14 14 15 15 17 16 12 11 13 16 15 13 19 24 23 23 23 22 20 22 25 26 25 23 22 23 26 31 34 36 37 35 33 31 31 31 30 29 27 26 25 24 25 30 37 41 41 37 35 40 40 32 28
2 2 3 3 4 5 7 9 12 15 19 23 25 25 26 26 26 26 27 28 28 28 27 26 24 23 21 17 13 9 7 8 9 12 15 16 16 17 19 19 18 16 15 18 24 25 26 31 32 30 28 26 25 22 20 23 30 34 35 33 30 28 29 31 34 35 33 33 31 30 30 30 29 27 25 24 23 22 22 30 38 39 37 33 36 40 35 28
2 2 2 2 2 3 3 4 6 7 10 14 18 22 24 25 26 26 27 27 28 28 28 27 25 25 22 19 17 12 9 8 8 12 15 16 17 20 23 24 22 21 19 22 27 28 28 32 33 32 31 30 28 22 19 19 24 34 42 42 37 33 30 29 32 32 31 32 30 29 29 29 28 26 23 22 22 23 20 24 33 38 37 33 34 38 38 30
2 2 1 1 1 1 2 2 3 4 5 7 10 14 17 21 23 25 26 27 27 28 29 28 26 26 23 20 18 16 12 8 8 10 12 16 18 21 25 26 25 25 23 24 28 29 28 28 28 29 28 28 25 20 19 20 19 24 36 42 40 38 36 31 30 30 30 29 28 27 28 28 27 25 22 21 24 25 21 23 31 36 35 33 32 36 38 33
2 2 1 1 1 1 1 1 2 2 3 4 5 7 10 14 18 22 24 25 26 28 29 28 27 26 23 19 18 18 15 10 7 8 10 14 18 23 26 26 26 27 26 25 27 29 29 28 27 27 25 23 22 19 20 22 19 16 25 38 40 39 36 31 30 30 29 28 27 26 27 27 26 25 23 22 26 27 24 25 32 36 35 33 32 34 37 34
2 2 2 2 1 1 1 1 1 1 1 2 3 4 6 8 12 17 21 23 25 27 28 26 25 25 22 18 16 17 17 13 8 7 9 13 17 24 27 28 28 28 28 27 26 26 28 29 28 26 23 20 18 17 19 20 18 15 18 30 39 40 34 28 29 31 30 28 27 26 27 27 26 26 24 20 24 29 29 29 33 36 36 35 33 34 36 35
2 2 2 2 1 1 1 1 1 1 1 1 1 2 4 5 7 10 14 19 22 24 26 26 25 24 23 21 17 16 16 15 10 8 9 12 17 23 27 29 30 30 29 28 26 25 27 28 24 19 17 15 14 15 17 16 16 16 16 22 32 39 34 29 31 32 31 29 27 27 27 27 27 26 23 19 20 27 30 31 32 35 36 36 35 34 34 35
2 2 2 2 1 1 1 1 1 1 1 1 1 1 2 3 5 7 10 15 19 21 23 24 25 24 25 26 22 18 16 14 11 9 10 12 16 22 26 28 30 31 30 30 28 25 25 26 21 14 10 11 11 14 16 15 14 15 16 19 27 34 34 31 33 33 31 30 27 27 27 27 27 25 23 20 19 22 27 30 31 33 35 36 36 34 33 35
2 1 1 1 1 1 1 1 1 1 1 1 1 1 2 2 3 5 7 9 14 20 21 21 22 21 23 26 26 23 19 14 12 10 10 12 15 18 22 25 28 29 29 31 33 30 26 23 18 14 10 9 11 13 15 15 14 13 14 18 23 29 32 31 32 33 33 31 28 28 28 27 27 25 22 21 19 20 25 28 31 33 34 35 36 34 33 35
1 1 2 1 1 1 1 1 1 1 1 1 1 1 1 2 2 3 5 6 9 15 19 20 21 19 21 26 27 26 23 18 14 11 10 11 12 15 17 21 25 28 29 29 31 32 29 21 15 14 13 12 11 12 13 13 14 12 12 15 17 20 27 32 34 33 30 28 26 26 25 25 25 24 23 21 19 19 22 26 30 32 33 35 36 36 34 34
1 1 1 1 1 1 1 2 2 1 1 1 1 2 1 2 3 3 5 6 6 9 14 18 20 19 19 24 27 26 24 22 18 13 12 11 11 13 15 17 20 26 28 25 25 28 27 21 18 16 15 14 13 13 14 14 16 14 10 11 13 15 20 26 33 35 32 27 26 25 24 24 24 24 22 20 19 18 19 21 26 29 31 35 37 37 36 35
1 1 1 1 1 1 1 1 2 2 2 2 1 1 2 2 3 5 7 10 8 6 9 12 16 18 18 22 25 24 23 22 21 17 13 12 11 12 13 15 19 22 23 23 25 28 25 23 24 22 19 17 16 15 12 14 22 20 11 9 12 14 14 20 31 38 35 30 27 26 25 25 24 23 22 21 19 18 20 21 23 26 29 32 36 37 37 36
2 2 1 1 1 1 2 1 2 2 1 2 2 2 3 3 6 9 11 15 12 7 9 13 15 18 19 21 23 24 24 22 20 20 16 14 12 11 12 13 16 18 18 21 27 27 23 23 27 27 23 20 20 19 13 13 24 27 17 10 12 13 13 21 32 38 35 31 28 27 25 25 24 23 22 21 20 19 20 23 24 26 27 28 32 35 37 37
2 2 2 2 1 1 1 1 2 2 2 3 2 3 3 4 11 15 17 24 23 15 15 19 19 19 19 21 22 24 25 22 20 23 19 16 14 13 14 14 13 15 16 21 26 25 19 20 27 29 27 24 22 21 15 14 24 28 19 11 12 12 14 24 36 39 36 32 29 27 25 25 25 23 22 22 21 20 19 20 22 25 25 26 28 31 35 37
3 2 2 2 2 2 2 2 2 2 3 2 2 4 3 8 17 20 24 30 28 21 21 23 23 21 20 21 22 23 25 21 21 24 21 18 16 14 16 15 13 12 13 17 21 19 15 16 18 21 28 28 21 17 13 14 24 26 18 13 15 15 19 29 35 35 31 28 26 26 24 24 24 23 22 21 21 20 19 18 20 21 23 24 26 28 31 35
3 3 3 3 2 3 2 3 3 2 3 2 3 4 4 13 22 27 33 30 23 22 22 22 23 22 21 20 21 23 25 22 20 22 23 20 18 16 15 14 14 14 12 13 16 14 13 14 12 15 23 22 15 15 15 16 21 21 18 20 21 21 26 32 33 29 26 25 25 25 25 23 23 23 22 21 21 19 18 18 18 19 20 21 22 25 28 31
4 3 4 3 3 3 3 4 3 3 3 2 4 4 6 16 24 33 40 30 21 25 22 20 22 22 20 19 19 22 25 22 18 20 23 22 20 19 17 15 18 21 18 14 15 15 12 14 17 19 20 14 10 17 19 18 19 18 20 25 24 26 30 31 30 28 26 27 26 25 25 23 22 23 21 20 20 19 18 18 18 18 18 19 19 22 25 28
5 4 4 4 4 4 3 4 4 4 4 2 4 6 13 24 29 38 41 24 17 25 23 21 23 21 20 19 19 21 24 22 17 18 23 23 21 21 21 20 24 29 27 20 17 17 15 16 20 19 17 15 16 20 22 21 20 20 23 24 24 27 29 28 28 28 27 28 26 23 23 22 22 23 21 19 19 18 18 18 17 18 18 18 18 18 20 22
5 5 5 5 5 5 4 5 4 4 4 3 4 7 19 34 36 36 31 17 17 25 24 24 23 22 22 20 19 20 23 22 16 16 22 23 22 22 22 22 24 29 31 27 22 19 18 18 18 17 16 17 19 23 26 25 24 24 24 23 24 26 27 27 27 28 27 27 25 21 20 21 21 22 20 17 18 18 18 18 17 17 17 18 18 17 16 17
6 6 6 6 6 6 6 5 4 5 4 4 4 6 20 38 40 33 22 16 24 28 27 26 24 23 24 23 21 19 21 22 18 17 20 22 23 23 23 24 24 26 29 29 27 24 23 20 18 19 20 18 19 23 27 27 27 27 25 24 23 24 26 26 25 26 25 23 23 20 19 20 20 18 17 15 16 17 17 17 17 17 17 17 18 17 16 15
7 7 6 7 7 7 7 6 6 6 4 5 5 9 27 40 38 35 28 22 26 27 28 29 26 24 26 26 24 21 20 21 20 19 19 21 24 25 26 28 29 28 27 27 28 27 26 25 20 19 19 18 18 20 21 22 24 25 25 24 23 22 23 23 22 22 20 20 22 21 19 20 18 16 16 15 16 16 16 17 17 17 17 16 17 17 17 16
8 9 8 8 8 8 7 7 7 6 5 6 6 16 37 43 35 36 40 35 31 28 28 29 27 27 27 27 26 23 21 20 20 20 20 21 24 27 28 30 32 31 28 26 27 28 27 25 20 16 17 17 17 19 19 20 23 23 23 24 24 23 21 19 19 20 19 19 22 23 22 20 17 15 16 15 15 15 15 16 16 16 16 16 17 17 17 16
10 11 10 9 9 8 8 8 8 8 8 5 9 25 39 38 35 41 47 46 42 37 31 27 27 28 29 29 28 25 23 22 20 19 20 21 22 27 29 30 32 32 30 28 26 27 27 26 22 19 18 17 16 17 18 20 23 24 24 24 23 23 20 18 19 21 19 18 20 22 20 17 15 14 13 13 14 14 14 15 16 16 16 16 16 17 16 16
12 11 11 10 9 9 8 9 10 10 9 7 14 30 38 37 39 45 51 50 47 45 41 36 32 30 31 32 30 28 27 25 21 19 19 20 21 25 28 30 32 32 32 31 27 25 26 26 24 23 20 18 17 19 19 20 21 23 23 23 23 23 21 20 20 21 19 18 20 19 16 16 17 14 12 11 11 12 13 14 15 16 16 16 16 16 16 15
13 12 12 11 10 10 10 11 12 12 13 12 16 27 39 47 48 48 53 54 49 48 48 45 40 35 37 39 36 31 29 26 24 20 20 22 23 26 28 30 32 32 32 32 29 27 26 24 23 22 20 18 19 22 23 22 22 21 21 21 22 22 23 23 22 22 20 18 19 19 16 16 16 14 14 13 12 12 12 13 14 15 15 16 16 16 16 15
15 13 13 14 14 14 13 13 14 15 16 22 35 48 57 61 59 55 58 59 53 51 52 50 46 42 42 45 42 37 34 32 29 25 24 27 30 30 30 31 33 32 32 32 31 29 27 24 23 21 19 20 22 24 24 24 24 23 21 21 20 20 21 23 22 20 20 19 19 19 17 15 13 12 10 10 10 11 12 12 12 13 14 14 15 16 16 14
16 14 17 19 17 17 18 16 16 21 28 40 63 81 81 72 66 64 69 73 67 62 63 60 56 54 52 51 50 44 39 38 36 32 31 32 35 36 34 34 36 35 33 32 31 31 28 25 24 22 20 21 23 24 24 23 23 23 23 21 20 19 20 21 21 19 18 19 20 19 17 14 12 8 6 6 7 8 9 9 9 10 10 11 12 14 15 15
19 18 21 24 22 21 23 22 23 33 45 57 75 88 89 86 79 68 69 82 82 74 72 68 62 61 59 58 56 50 44 44 41 40 41 39 39 42 41 38 37 37 36 34 32 32 29 27 25 23 21 22 23 22 20 19 20 20 20 20 20 20 19 20 22 20 17 17 20 19 15 13 11 8 7 7 7 6 6 7 7 8 9 10 11 13 15 15
25 25 26 28 28 25 26 35 48 57 67 76 84 86 85 92 95 80 72 83 88 80 76 73 67 64 61 60 59 53 49 49 47 46 49 47 45 47 47 41 38 39 40 37 34 33 31 29 27 24 22 21 21 20 18 19 19 19 19 19 19 19 19 19 21 21 19 18 20 20 18 16 14 11 9 9 8 8 7 6 7 8 10 12 12 13 14 15
33 36 37 35 33 32 36 50 63 66 69 79 87 86 83 92 102 95 84 83 84 79 75 73 71 67 66 65 63 58 52 51 53 54 55 55 53 52 50 45 40 41 44 44 39 35 34 33 31 28 25 22 20 20 19 19 20 20 20 20 19 19 19 18 19 19 19 20 20 20 20 18 15 12 10 10 10 10 9 8 8 8 10 11 12 13 14 14
37 41 45 42 40 45 52 63 71 67 60 61 68 71 74 86 97 98 95 89 82 77 74 73 72 70 70 69 65 62 57 56 61 63 61 61 60 57 53 50 45 41 44 51 47 39 37 37 34 32 30 26 23 21 19 19 20 21 21 21 21 20 18 17 18 18 18 19 18 18 20 18 14 13 12 12 12 11 10 10 9 9 9 9 10 12 13 13
42 43 47 48 55 63 64 68 79 78 68 63 63 63 66 79 89 91 97 95 86 80 77 76 73 69 70 71 68 65 60 59 65 67 64 63 61 58 56 53 50 44 43 49 48 41 41 42 38 33 33 34 32 29 26 23 21 21 20 20 20 20 19 19 18 19 21 20 18 17 19 18 14 13 13 12 11 11 10 10 9 9 10 9 9 10 12 13
49 50 51 51 63 74 72 72 79 81 78 73 69 69 74 87 92 87 90 96 90 82 79 78 76 71 70 71 70 68 63 60 64 65 65 65 61 59 57 54 53 50 46 46 45 42 43 43 41 37 37 40 41 37 33 28 25 25 23 20 20 20 20 19 19 21 21 20 19 17 16 17 15 14 13 12 12 11 11 10 10 9 9 10 10 10 11 11
57 62 63 62 67 71 69 71 75 80 84 78 73 77 82 93 99 89 83 88 89 86 84 82 78 73 72 73 71 71 68 63 63 64 64 64 61 59 58 55 53 52 50 47 45 43 43 42 42 41 42 43 42 40 37 32 31 31 27 22 21 22 20 19 20 22 21 20 20 18 15 16 16 14 14 13 12 12 11 10 10 10 9 9 10 11 11 10
61 68 71 73 75 74 73 74 75 79 84 79 76 82 86 91 100 98 89 85 85 87 89 88 83 78 76 76 74 72 70 66 63 62 61 61 60 59 58 56 54 53 52 49 47 45 44 43 43 42 43 45 43 42 41 38 36 35 32 27 25 24 24 23 21 21 21 21 20 18 17 16 15 14 14 14 12 12 12 11 10 10 9 9 10 10 9 9
62 67 69 70 73 80 85 85 82 81 82 81 80 84 86 88 92 96 96 93 90 88 85 84 86 85 81 80 77 73 71 68 65 64 62 61 59 57 56 54 53 53 52 50 49 46 45 49 49 45 43 43 42 41 40 39 39 38 36 32 28 25 26 27 25 21 21 21 19 18 18 17 16 15 14 13 13 13 12 12 11 10 10 10 10 9 8 9
67 71 73 70 68 77 85 86 84 82 79 81 85 87 86 83 83 87 91 94 97 96 89 83 84 82 78 79 79 75 73 71 68 66 62 58 56 55 55 54 53 52 51 49 48 45 46 51 51 45 42 40 38 38 37 37 38 38 37 35 31 28 27 28 28 25 24 25 21 17 17 17 16 16 15 15 14 14 14 13 12 11 10 11 11 10 9 9
69 73 79 77 73 77 84 84 84 83 80 81 85 85 80 77 79 80 82 87 96 100 97 93 92 88 81 80 80 78 75 71 66 62 58 53 52 53 53 50 47 46 46 44 43 42 42 43 41 40 40 39 37 36 35 35 36 36 35 33 31 30 29 28 28 26 27 28 24 21 22 20 17 16 16 15 15 15 15 14 13 11 11 11 11 11 10 10
68 74 82 84 79 79 84 84 81 82 82 82 83 83 81 81 81 81 82 86 93 99 100 99 97 92 87 83 80 77 73 68 62 58 55 50 46 44 42 39 37 37 37 37 37 37 36 35 35 37 39 38 37 37 36 36 35 34 34 31 29 29 28 27 28 27 27 28 28 28 28 22 17 16 16 16 15 15 15 14 14 13 12 12 11 11 11 11
Wind_Speed
16 16 16 15 15 15 14 14 14 14 14 14 14 14 14 14 15 15 16 17 17 18 18 19 19 18 17 16 15 15 15 14 14 11 6 6 11 15 18 21 23 24 25 26 26 26 26 24 23 21 19 18 16 14 13 12 11 7 6 5 1 5 6 7 6 5 4 3 5 7 6 2 2 3 4 4 4 2 1 2 1 3 6 7 9 10 8 10
17 17 17 17 16 16 15 15 14 15 15 15 14 14 14 13 14 14 14 15 16 16 17 18 18 19 19 17 16 17 16 15 16 11 6 10 13 14 16 21 25 26 26 26 26 26 25 24 24 22 20 19 17 16 15 13 12 8 7 7 4 7 8 7 6 4 3 3 5 7 7 6 4 3 3 4 5 4 2 2 2 1 5 6 7 10 11 11
17 17 17 17 17 17 17 16 16 15 15 15 15 15 15 14 14 13 13 14 14 15 16 17 18 19 20 18 17 17 17 17 17 12 10 13 12 13 14 16 21 23 24 24 24 24 24 23 23 23 22 21 19 18 16 14 12 9 8 7 6 7 7 6 6 4 3 4 3 6 7 8 7 5 4 2 2 4 4 4 4 2 2 4 6 8 10 11
17 17 17 17 17 18 17 17 17 16 16 15 15 15 15 15 15 14 13 13 13 14 14 16 16 18 19 19 18 17 18 19 17 13 13 13 13 14 14 14 16 19 22 23 24 25 25 24 25 24 24 23 22 20 18 16 13 10 8 6 5 7 8 7 6 5 4 5 4 3 4 8 9 8 6 5 2 3 6 7 7 6 3 2 4 6 8 10
18 18 18 18 18 18 18 18 18 18 17 16 16 15 16 16 16 15 14 13 13 13 13 15 15 16 18 18 18 18 17 17 14 12 13 13 13 15 15 15 16 18 21 24 26 27 27 27 27 28 27 26 24 22 20 17 15 14 9 6 5 6 8 7 7 5 4 4 5 7 6 7 9 12 10 7 2 4 5 6 6 7 5 2 2 4 6 9
20 19 19 19 19 19 19 19 19 19 18 18 17 17 17 16 16 16 15 14 13 13 13 14 15 15 16 17 17 17 18 15 10 9 12 11 10 12 13 15 17 19 22 24 26 28 29 30 31 32 30 28 25 23 20 17 16 16 12 10 9 6 8 8 6 2 2 3 6 8 7 6 6 10 12 11 4 1 2 2 3 4 5 3 3 4 5 8
22 22 21 21 20 20 20 20 20 20 19 19 18 18 18 17 17 16 15 15 14 13 13 13 15 14 14 16 16 18 19 14 10 11 13 12 9 10 11 12 16 20 24 26 27 28 29 31 33 32 30 29 27 24 20 18 18 18 14 12 11 9 10 9 5 3 3 4 6 8 7 6 6 8 10 12 9 6 4 3 1 1 3 4 5 7 6 8
24 24 23 23 22 22 22 22 21 21 20 19 19 19 19 19 18 16 15 15 15 14 13 14 14 13 14 14 15 17 13 6 12 18 19 15 12 12 11 11 13 19 24 25 26 27 27 30 31 31 31 30 27 25 22 20 20 20 16 12 12 12 12 11 10 7 4 5 7 8 7 7 8 9 8 7 10 11 8 7 5 3 1 3 6 9 10 11
24 24 25 24 24 24 24 23 23 22 21 21 21 21 20 19 18 17 16 15 15 14 13 14 14 14 14 13 15 12 5 7 14 20 19 16 15 14 13 13 13 18 23 24 24 26 27 28 29 30 30 29 27 25 23 22 23 20 17 16 14 14 14 14 12 9 6 7 8 9 6 7 9 11 10 7 9 13 11 11 9 5 4 1 5 9 11 13
24 24 24 25 25 25 25 25 24 23 23 22 22 22 21 20 19 17 16 16 16 16 15 14 14 14 13 13 14 8 5 12 17 18 18 16 16 15 14 14 14 16 21 23 25 26 26 24 25 29 29 27 27 26 25 25 24 20 18 18 17 16 16 15 13 10 8 8 8 8 7 9 11 12 12 8 8 11 13 14 13 9 6 4 3 9 12 15
23 23 24 24 24 25 25 25 25 24 24 24 24 23 23 21 19 18 17 17 17 18 16 15 14 14 13 14 13 8 10 15 16 16 17 17 17 16 15 13 12 15 19 22 24 23 23 22 24 27 28 28 27 26 26 26 24 21 21 20 17 17 17 17 16 12 10 10 8 9 11 13 14 12 10 8 8 10 13 15 15 13 10 8 6 8 12 16
23 23 23 23 24 24 25 25 25 25 24 24 25 25 24 22 21 20 19 18 18 19 18 16 15 14 14 13 7 7 12 15 16 16 15 17 18 18 17 14 12 14 17 20 22 22 22 23 25 27 27 27 27 25 25 26 26 23 23 23 20 19 20 19 15 13 12 11 9 11 15 18 18 13 10 10 10 10 12 14 16 16 13 11 10 8 10 14
24 24 24 24 24 25 25 25 25 25 24 24 25 25 24 23 22 21 20 20 19 19 19 18 17 15 15 9 4 11 13 13 17 17 16 17 18 18 18 16 14 14 14 15 18 20 22 24 26 26 25 25 26 25 21 22 25 24 23 24 23 22 22 20 15 15 15 12 12 13 16 21 20 13 13 12 11 11 12 13 15 17 17 15 13 10 8 11
26 26 26 26 26 26 26 25 25 25 25 25 25 25 24 24 23 22 21 21 21 20 19 19 18 18 16 5 7 14 14 14 17 16 16 18 19 19 18 17 17 16 16 15 14 16 20 23 24 25 26 25 25 24 21 19 19 21 22 25 25 24 23 21 17 18 17 14 14 15 19 24 21 15 15 14 13 13 14 14 14 16 18 17 16 13 9 9
28 28 28 28 28 28 28 27 26 25 25 25 25 25 24 24 24 23 22 22 22 21 21 20 19 20 18 9 9 15 16 17 16 15 18 20 20 20 18 17 18 18 18 17 15 15 17 20 24 26 28 28 27 25 23 21 19 18 18 19 24 26 25 22 20 20 18 16 16 16 21 25 22 17 16 17 18 17 16 16 16 16 18 18 18 16 12 9
28 29 28 29 29 30 30 29 28 27 26 25 25 25 25 24 24 23 23 22 22 23 22 21 20 21 20 13 13 16 19 19 16 18 22 21 22 21 19 19 19 20 21 20 18 18 19 20 24 27 28 29 29 27 26 25 24 22 19 18 21 25 25 22 20 20 19 18 17 18 22 25 21 17 18 21 21 18 17 17 18 18 19 20 19 18 15 11
29 29 29 29 29 30 31 31 30 29 28 27 25 25 25 25 25 24 24 23 23 23 23 23 22 22 21 15 14 15 18 21 20 21 23 23 23 23 24 23 21 21 22 23 23 22 22 23 25 27 29 31 30 29 26 25 28 27 24 23 23 23 24 24 21 18 17 17 15 17 23 25 20 17 19 22 21 17 15 16 18 19 20 21 21 19 17 14
31 31 31 30 30 31 32 32 31 30 29 29 27 26 25 25 25 25 24 24 24 23 23 23 23 23 20 15 16 17 17 19 22 23 23 26 26 26 26 24 23 23 24 25 26 27 26 27 28 28 32 34 33 34 29 22 27 30 28 26 24 23 25 26 24 18 16 16 15 16 22 24 20 18 21 22 19 15 14 15 17 19 21 21 21 20 18 17
34 33 32 32 31 32 33 32 32 31 29 29 29 28 27 26 25 25 25 26 25 24 23 23 23 21 16 11 12 17 20 19 21 24 24 27 28 28 28 27 26 26 27 28 28 30 30 30 32 34 38 40 40 41 36 27 25 27 29 28 25 24 26 29 27 22 19 18 19 19 21 23 21 21 23 22 19 15 14 16 18 19 21 22 20 20 19 18
35 34 33 33 32 32 33 33 33 32 30 29 29 29 28 27 26 25 25 25 26 25 25 25 24 21 18 15 12 13 18 20 22 24 25 27 30 31 31 31 30 29 30 31 31 31 31 33 39 43 44 44 42 41 38 35 29 22 23 27 28 27 28 30 27 24 22 22 25 24 25 26 25 24 24 23 21 18 16 17 19 20 21 22 20 19 19 18
37 36 35 33 33 33 33 34 33 33 31 29 28 28 28 27 27 26 25 24 24 27 28 26 27 26 21 21 20 16 17 20 22 25 27 29 32 34 34 34 35 35 34 32 30 30 33 39 45 45 43 41 40 39 36 35 33 28 24 23 27 30 33 32 27 24 22 22 27 28 27 29 27 25 25 24 23 19 16 17 18 21 22 22 21 19 19 19
37 37 36 35 33 33 34 34 33 33 32 30 28 27 28 28 27 27 27 24 20 24 29 27 28 28 24 23 25 23 22 22 24 28 30 32 36 38 37 37 38 38 35 33 32 33 37 45 46 41 38 38 37 37 36 35 33 33 30 26 27 31 33 31 28 27 21 21 28 28 28 32 30 27 25 24 22 17 14 15 16 18 22 24 22 20 19 21
38 37 37 36 34 33 34 33 32 32 31 29 27 26 27 27 26 26 28 29 21 20 25 28 29 27 23 24 26 29 29 26 26 29 32 35 38 39 39 40 40 38 37 37 39 39 39 42 43 39 35 36 38 36 35 34 33 34 34 33 34 34 31 25 23 23 17 16 21 21 24 31 30 27 27 24 22 17 14 15 16 17 20 24 25 23 21 21
39 38 38 37 34 32 33 32 31 31 30 28 26 24 25 25 25 25 27 30 28 22 20 24 29 27 23 23 27 30 31 30 30 31 33 36 38 39 41 40 39 41 41 41 41 42 42 37 33 34 37 36 36 36 35 32 33 35 37 38 37 36 35 29 25 25 19 16 20 19 21 30 32 28 28 25 22 20 17 16 18 18 19 22 27 28 25 22
40 39 39 38 36 32 32 31 29 28 28 26 25 23 24 24 22 23 24 27 30 25 20 23 25 26 26 27 28 29 30 32 33 33 35 37 38 39 41 40 40 42 42 41 40 42 44 38 27 24 32 38 36 36 37 35 31 32 38 41 37 34 35 33 31 27 21 19 23 20 14 22 31 28 25 23 21 20 18 17 18 19 19 21 25 27 26 24
40 40 39 39 38 33 30 29 27 26 26 23 23 21 21 21 18 19 22 23 25 22 18 20 19 21 25 27 27 28 31 33 31 35 38 37 37 38 40 42 42 43 42 40 40 41 43 41 34 22 20 30 38 38 38 37 30 27 34 38 35 33 33 32 28 22 17 16 20 19 12 16 26 28 22 17 17 17 15 15 15 16 19 20 23 25 26 26
40 40 39 38 38 36 32 29 27 25 23 20 20 19 17 17 14 15 16 15 14 13 14 15 13 18 21 21 24 28 29 28 29 38 41 38 38 39 40 43 44 43 42 40 39 42 42 41 41 35 22 21 34 41 40 39 30 25 33 36 32 33 34 32 26 21 20 20 24 25 19 18 26 34 31 22 21 21 19 18 14 13 16 17 20 23 25 26
40 40 40 38 37 37 33 30 28 24 22 19 17 16 15 12 10 8 8 5 4 3 8 11 12 16 17 17 21 28 29 24 26 36 41 39 40 42 42 44 43 42 43 43 43 44 43 40 40 42 36 28 32 37 37 39 33 28 33 33 30 29 29 27 21 19 19 19 23 24 19 16 22 34 38 32 30 29 26 22 17 14 14 14 16 19 22 25
40 40 41 39 36 35 33 31 28 24 21 17 14 15 13 9 8 4 1 3 4 5 7 9 11 13 14 15 17 26 31 25 21 29 39 42 41 43 44 42 41 41 42 43 46 45 41 38 36 37 41 37 33 31 30 34 35 33 32 24 22 24 22 20 17 17 15 16 22 22 16 13 17 28 35 33 33 34 30 25 21 18 16 14 13 14 18 22
40 39 41 41 37 34 31 29 28 24 21 16 13 13 11 10 9 5 4 6 5 6 10 12 12 11 11 14 16 22 29 26 19 23 38 45 43 43 42 40 39 39 40 42 44 46 42 36 34 34 37 36 33 31 26 27 31 32 29 19 14 17 19 18 18 16 13 14 20 21 19 15 15 25 36 38 37 34 30 27 23 21 18 15 12 12 16 21
39 39 40 41 39 36 31 27 25 23 19 16 13 11 11 11 12 8 5 9 8 6 9 12 14 13 10 11 14 19 26 26 19 21 37 46 44 45 43 40 38 33 34 41 42 44 44 36 32 34 33 30 31 34 30 25 26 26 24 20 15 13 14 15 16 15 12 10 11 14 18 18 18 21 27 35 38 33 31 29 26 22 19 16 14 12 14 17
38 38 39 39 38 37 33 28 25 21 17 14 13 13 13 11 14 16 10 6 6 7 9 11 13 14 11 10 12 17 24 26 21 19 32 46 47 48 48 45 44 34 28 38 41 39 43 42 37 33 31 29 28 30 32 30 30 27 24 23 19 11 8 11 12 10 11 9 6 7 10 17 26 29 29 34 38 34 32 30 27 24 21 19 17 14 13 13
36 37 38 37 37 35 32 29 24 21 16 12 13 16 17 11 10 21 21 12 5 4 9 11 13 14 11 9 11 15 21 25 24 17 21 38 46 48 48 46 46 39 28 32 38 33 32 38 43 37 32 32 31 28 30 32 33 33 28 26 22 11 6 10 9 6 8 9 10 12 12 17 26 31 33 34 35 36 37 33 30 27 24 21 19 17 16 15
34 35 36 35 35 34 32 28 24 20 16 11 13 16 19 15 8 10 17 21 19 13 10 11 12 13 10 9 10 13 17 20 25 21 16 29 43 45 46 45 43 41 31 27 33 33 23 23 39 44 37 35 35 33 30 27 29 32 31 29 25 17 10 7 6 5 4 3 9 16 14 12 14 16 20 21 23 27 30 32 32 30 27 24 21 20 19 18
31 32 33 33 32 32 30 27 22 19 14 11 14 18 21 19 11 4 6 15 21 21 19 17 14 13 10 10 9 11 15 17 21 24 18 24 38 41 42 42 38 39 37 26 26 33 27 22 32 39 39 38 34 33 32 24 22 27 29 30 29 27 21 9 3 5 4 2 7 15 15 14 13 15 17 16 18 21 22 26 29 29 29 27 25 24 21 18
30 29 30 30 28 28 27 25 22 18 14 12 15 21 24 21 12 8 8 9 12 15 17 19 18 17 14 13 12 11 13 15 18 22 20 22 33 38 39 41 39 39 41 32 24 25 23 23 30 28 29 36 33 31 32 28 23 24 28 32 32 30 27 16 7 5 5 5 7 14 19 20 18 22 25 22 20 20 21 24 27 28 28 26 27 25 22 19
30 28 27 27 25 24 24 24 22 19 15 13 16 21 25 23 18 14 12 11 10 10 10 10 12 13 11 11 14 14 12 12 14 19 22 22 26 35 38 39 39 41 43 39 30 25 17 15 25 27 23 26 30 30 29 29 28 25 27 31 28 22 23 20 11 6 7 7 7 13 19 19 16 20 25 26 27 27 27 29 30 29 28 26 26 25 22 18
30 28 25 24 22 22 22 22 21 20 15 13 19 21 21 22 23 21 17 16 14 12 11 9 8 8 7 6 10 14 13 11 13 17 23 23 21 29 36 36 37 40 43 43 35 27 22 14 14 22 23 22 26 29 26 29 32 29 27 27 23 16 18 22 15 6 8 8 5 8 14 18 23 23 17 16 19 22 25 27 29 31 32 30 28 26 22 18
30 27 24 21 19 19 20 20 20 19 13 11 16 17 18 21 23 22 20 19 18 17 14 11 9 9 10 9 8 10 10 9 11 15 20 21 18 23 31 32 33 36 39 43 38 27 24 19 10 12 19 19 24 30 29 30 33 33 28 23 22 18 16 24 23 11 7 7 5 4 7 15 27 34 31 26 23 20 21 23 25 28 31 31 30 29 24 19
28 25 22 19 17 18 19 19 19 17 10 10 13 12 15 20 22 22 19 17 17 16 14 13 13 13 12 11 10 10 8 5 7 11 13 16 16 19 25 26 26 30 32 36 40 32 24 21 15 13 18 20 25 32 32 32 36 37 31 24 25 23 14 18 25 20 11 6 4 5 6 7 10 15 19 22 23 23 24 26 27 28 27 26 27 29 27 21
27 25 21 19 17 17 18 18 17 14 7 7 11 14 17 18 19 21 20 16 13 12 11 12 15 16 15 13 13 12 10 7 6 6 7 11 14 14 19 22 19 20 24 28 34 35 29 24 19 17 20 22 25 26 26 27 33 36 35 31 31 28 19 12 15 21 21 13 6 5 8 8 5 3 2 2 4 10 14 17 22 24 23 21 20 22 26 24
26 24 21 20 18 16 15 14 12 10 7 6 8 11 14 15 13 15 18 16 12 10 10 11 13 16 16 15 15 15 13 10 9 7 6 9 13 12 13 18 16 13 18 25 28 33 33 27 22 19 19 20 21 22 22 24 31 35 36 37 35 31 28 18 10 17 23 19 13 8 10 12 12 13 13 9 8 9 11 11 12 16 18 18 17 17 21 24
25 22 20 20 18 16 14 11 8 8 8 7 8 10 12 14 11 10 13 14 11 9 10 11 10 10 12 12 11 12 12 11 9 8 8 8 11 11 10 13 14 12 16 21 23 27 29 26 24 21 17 17 18 21 24 27 33 36 36 36 33 32 33 29 22 21 20 18 16 10 10 11 7 5 3 4 5 6 6 6 6 9 14 18 19 19 19 22
26 21 18 19 17 14 12 11 10 12 12 9 9 11 13 16 14 11 11 12 11 8 7 10 10 8 8 9 9 9 10 10 8 7 10 10 9 10 9 9 10 11 14 16 18 21 21 21 24 18 11 14 15 17 22 27 30 33 33 33 31 32 34 34 30 26 20 20 22 16 10 7 6 4 3 2 4 5 5 5 5 6 7 12 18 21 21 21
26 22 19 18 13 11 12 13 13 14 14 13 11 10 13 15 13 10 8 7 8 9 8 7 9 8 7 7 8 9 10 11 9 7 9 10 9 9 8 7 7 7 10 12 14 17 16 17 23 20 11 11 11 12 18 23 24 26 29 32 32 32 33 32 30 24 19 21 27 27 17 7 8 10 7 6 7 6 6 5 5 5 4 6 11 17 20 21
26 24 22 18 9 8 13 13 12 13 15 15 13 10 13 13 11 9 6 2 6 10 10 8 9 8 6 7 7 8 9 11 9 6 6 8 9 8 7 7 6 4 7 8 9 13 13 13 21 24 18 11 8 10 18 25 24 22 24 28 30 31 32 33 31 25 23 25 30 38 34 21 19 19 13 12 11 9 10 9 8 7 6 7 8 11 14 18
24 23 23 20 11 8 11 10 9 11 12 14 14 12 12 13 11 10 8 5 3 7 8 7 9 10 8 7 7 5 7 10 10 7 6 7 7 7 7 7 5 3 4 5 5 9 10 9 12 18 18 15 12 12 17 24 26 23 24 26 26 26 30 35 33 26 26 27 28 38 43 39 37 34 25 20 16 14 14 12 10 11 9 8 8 9 10 12
23 21 20 18 15 14 13 10 10 11 11 12 14 12 11 13 12 10 6 6 6 4 3 3 7 10 9 8 8 7 6 7 8 9 9 8 8 8 7 7 7 5 4 4 4 5 5 4 6 10 12 13 14 13 12 16 20 22 25 28 28 27 27 31 35 32 29 27 26 32 39 41 44 42 37 33 28 24 22 16 12 16 15 12 10 11 12 11
23 22 19 16 16 16 14 13 13 13 12 11 12 12 12 14 13 11 7 4 4 5 5 5 3 4 5 5 6 6 6 6 7 8 9 9 10 10 10 10 9 8 7 5 5 5 3 1 5 8 9 9 10 12 12 12 15 19 23 27 31 32 30 29 33 34 33 31 31 32 33 35 37 37 37 37 33 32 32 28 26 26 25 22 18 17 16 12
22 22 20 17 15 14 14 14 14 14 13 11 11 11 11 13 14 13 10 4 1 1 3 6 6 5 5 4 2 2 3 5 6 7 8 9 10 11 11 12 11 11 10 8 7 8 5 3 6 8 9 10 10 9 10 11 13 18 23 26 30 33 34 33 31 31 32 31 35 39 39 39 38 34 34 35 33 33 34 34 35 34 32 29 25 23 21 17
20 19 18 17 16 15 14 14 14 14 13 11 11 12 11 11 14 15 11 3 2 1 1 3 4 5 6 7 7 7 7 7 7 8 9 10 11 11 12 13 13 13 14 11 10 10 8 8 9 9 10 12 12 11 12 13 15 19 24 28 30 31 33 33 32 32 31 28 30 35 36 39 40 36 34 34 33 32 32 32 32 32 31 30 29 28 27 24
19 17 15 17 18 17 15 15 15 14 11 9 11 13 12 11 12 14 12 6 5 2 3 3 2 3 3 5 7 10 10 11 11 12 12 12 12 12 12 13 13 15 16 15 13 12 12 11 10 8 8 11 13 14 13 13 14 16 22 29 32 33 34 33 32 33 31 28 28 26 26 33 37 35 32 32 32 32 32 30 29 28 28 30 31 31 30 28
Wind_Direction
312 310 309 308 307 306 305 303 302 301 301 302 302 302 299 294 289 283 278 274 271 268 267 266 267 268 267 267 268 270 270 269 267 260 254 242 232 226 215 214 219 219 219 219 217 217 217 218 219 221 223 227 230 235 241 249 261 275 278 278 199 131 120 115 111 94 47 326 262 269 282 307 22 27 28 49 68 64 356 353 11 182 180 167 156 154 170 188
315 313 311 309 307 306 305 303 302 301 301 301 302 303 302 300 295 289 283 278 274 270 267 265 264 265 264 263 264 265 266 267 265 261 251 244 237 236 230 221 223 222 219 220 218 218 219 219 220 221 223 227 228 232 236 244 252 264 274 259 180 137 133 126 99 82 36 336 257 257 268 268 285 320 339 22 54 62 45 26 15 217 198 191 176 160 163 182
315 314 312 310 308 306 305 303 301 301 301 300 301 301 300 300 297 295 291 285 279 273 269 266 263 263 263 262 261 263 263 263 263 263 253 249 243 239 237 231 230 228 224 222 219 218 218 218 219 220 222 223 225 230 234 239 246 257 258 233 177 162 166 146 105 93 66 23 293 264 261 257 258 263 274 310 53 74 67 60 60 65 190 199 195 175 163 174
311 311 311 310 309 307 306 304 302 301 299 299 299 298 298 298 298 298 296 293 286 278 272 268 265 262 263 261 261 262 263 264 264 263 255 248 241 234 230 227 227 228 226 221 216 214 212 211 212 216 221 222 222 226 231 236 243 251 239 208 180 184 181 160 127 115 97 61 28 345 295 270 260 255 253 257 280 62 69 68 69 72 87 164 189 192 177 168
306 306 307 307 307 307 306 304 303 302 300 299 297 296 296 296 297 298 298 297 292 285 276 271 268 264 263 262 261 261 263 267 267 257 250 245 235 229 226 223 218 218 221 220 215 211 208 206 206 210 215 220 220 222 228 233 241 247 237 215 200 175 167 161 139 114 87 63 30 13 347 311 270 257 257 258 268 58 60 69 74 75 83 104 160 196 198 176
302 302 302 302 303 303 303 302 302 302 301 300 297 294 292 292 294 297 300 299 297 292 282 275 271 268 266 263 261 259 256 257 263 249 233 231 230 225 223 224 218 213 215 216 215 213 208 205 205 206 210 215 218 222 228 233 240 246 242 230 224 202 181 168 147 119 28 357 353 346 332 325 286 265 266 262 236 118 7 41 75 68 72 99 171 175 193 188
301 300 300 299 299 299 299 299 299 299 299 299 298 295 292 290 291 294 298 298 298 295 287 280 275 272 270 267 263 259 257 251 243 235 221 219 231 231 220 221 221 215 213 212 212 212 211 208 206 206 208 211 215 219 223 228 237 243 241 231 232 225 193 184 202 229 278 317 332 324 314 314 307 294 276 261 250 235 255 286 332 27 54 85 149 163 171 189
301 300 299 299 298 297 297 296 296 297 296 296 295 294 293 291 291 292 294 295 294 292 289 282 278 276 272 270 266 261 260 229 209 223 228 226 231 232 221 219 224 220 215 213 211 211 213 212 209 207 209 211 214 218 219 224 232 237 239 234 235 228 205 213 232 223 251 302 316 310 315 324 316 302 273 253 261 253 241 252 266 279 318 77 132 163 170 181
306 303 301 300 299 297 296 295 294 294 295 294 292 292 291 292 293 293 291 288 286 285 285 282 281 279 273 271 270 264 243 200 206 220 231 229 226 230 225 223 225 222 217 213 211 211 213 214 212 210 211 213 215 218 220 226 233 235 241 243 237 231 219 226 232 221 249 284 302 304 313 325 318 298 269 251 263 255 243 246 254 259 265 338 136 163 171 176
311 309 306 303 301 299 297 295 294 294 294 293 291 290 290 291 292 292 289 282 279 278 277 280 281 281 278 272 269 266 226 228 224 224 232 230 227 229 225 222 220 217 215 213 213 212 211 212 213 213 214 215 218 219 220 225 232 235 243 246 236 229 223 228 233 226 247 266 284 298 303 307 300 283 266 257 259 252 247 246 250 251 240 246 179 162 171 175
316 313 310 307 304 302 299 297 296 295 293 291 289 289 290 290 288 287 285 280 277 275 274 274 277 279 278 277 276 267 241 233 227 225 228 227 226 225 219 214 217 214 214 216 217 215 209 207 212 214 214 216 219 223 226 227 232 235 243 248 241 235 227 228 233 228 244 256 272 292 291 287 273 263 264 269 268 257 252 248 250 253 240 234 217 175 173 175
324 320 315 311 307 303 301 299 298 297 295 291 288 287 289 289 287 283 280 279 277 275 275 272 272 274 274 282 285 247 236 226 222 221 216 218 217 216 211 204 207 209 210 217 219 216 207 205 208 211 214 217 219 225 231 233 235 236 241 247 246 244 234 228 232 233 244 250 263 281 279 270 257 258 287 297 287 269 258 252 249 251 246 236 224 199 181 180
329 326 322 318 312 307 303 300 299 298 296 293 289 288 287 287 285 281 278 276 275 274 274 272 270 267 270 281 202 219 234 217 217 217 209 209 206 206 206 199 193 188 193 207 214 212 204 203 206 208 212 217 220 224 231 236 238 238 241 245 247 250 240 228 230 237 244 249 254 266 269 265 259 270 295 298 291 278 266 258 249 249 249 240 229 218 196 187
330 328 326 323 319 314 309 305 302 300 298 295 292 289 288 286 283 280 277 274 272 272 271 271 269 265 265 260 187 218 234 225 221 217 210 206 200 201 202 197 190 179 176 179 187 198 199 201 205 210 214 218 221 224 228 234 238 237 239 243 245 249 242 228 227 236 243 249 249 257 265 265 268 283 296 299 297 288 276 266 254 248 248 245 235 227 216 200
328 327 325 324 321 318 314 311 308 305 302 297 294 291 290 287 283 280 277 273 271 269 269 268 267 266 265 252 219 222 228 232 229 214 210 206 199 199 198 196 191 180 175 172 173 184 195 204 209 213 217 219 224 227 229 231 233 231 233 240 242 244 240 228 227 233 239 248 248 252 260 262 271 290 303 306 301 293 281 267 258 251 247 247 240 231 227 211
327 325 324 322 320 318 315 313 312 310 308 303 298 294 291 288 285 281 277 273 270 267 266 266 265 266 267 257 237 231 228 231 224 210 211 206 197 195 193 194 191 184 178 176 178 184 192 203 212 217 219 222 226 228 231 233 232 228 227 233 235 239 241 235 232 235 239 248 250 249 254 261 274 293 305 309 304 292 280 264 255 253 246 244 243 236 232 220
324 323 323 321 319 316 314 313 312 311 311 308 304 299 294 290 286 283 279 274 270 266 264 263 263 263 265 262 246 235 228 224 219 215 212 206 199 192 192 193 189 187 184 182 184 188 193 201 209 214 218 222 225 225 228 232 230 226 225 230 232 233 238 239 237 234 236 244 250 250 254 261 272 287 298 307 305 286 271 261 254 251 243 240 240 237 234 228
322 321 321 320 319 316 313 311 310 310 310 309 307 303 298 294 287 283 279 275 270 266 263 261 260 259 262 261 247 236 229 223 220 219 212 205 199 192 194 196 191 189 190 191 191 194 198 203 209 214 217 218 220 219 219 223 227 225 223 228 232 233 235 236 235 233 235 241 245 250 257 263 271 282 291 302 302 283 265 257 252 249 242 237 237 237 236 233
319 319 318 318 317 315 313 311 310 309 309 308 307 305 302 298 292 284 278 274 271 267 263 259 253 252 253 247 235 231 229 223 218 216 212 206 199 194 195 196 197 198 198 198 198 199 201 205 210 214 216 215 216 217 217 220 226 227 226 228 233 236 237 235 236 240 242 242 241 245 258 266 271 278 285 296 300 289 270 254 244 244 243 237 235 236 237 235
317 316 316 315 315 314 312 311 310 308 308 307 305 304 302 300 296 289 281 275 273 267 260 258 256 250 244 236 228 224 222 217 214 211 209 206 200 196 196 197 199 202 205 205 205 205 205 211 215 215 216 215 216 219 221 224 227 231 231 231 234 239 239 236 238 244 247 250 248 247 255 262 268 276 283 291 294 286 270 255 243 240 241 241 239 237 236 233
315 314 313 313 313 313 311 310 310 309 307 305 304 303 301 300 298 292 286 276 271 270 262 257 256 250 241 233 228 225 218 211 210 207 205 204 201 199 200 201 201 203 206 208 210 211 211 218 220 219 219 219 219 221 224 226 228 231 233 234 237 240 241 239 238 241 246 254 251 251 259 262 268 278 284 286 287 285 275 263 253 247 244 244 243 239 235 229
314 313 311 311 311 312 311 311 311 309 308 307 306 304 301 301 300 297 292 279 263 263 264 257 253 250 241 234 230 225 219 212 209 207 204 202 201 201 203 204 205 207 205 203 208 212 216 223 225 223 223 222 223 223 225 227 229 232 233 237 239 239 242 245 244 245 251 258 257 262 270 269 270 275 277 278 281 289 284 268 262 259 254 250 249 245 237 227
315 313 311 309 309 311 311 312 313 310 309 310 308 304 302 301 301 301 299 290 268 249 258 260 257 252 239 229 226 223 222 217 210 208 207 204 203 203 205 206 208 210 207 204 205 209 216 227 229 225 223 223 224 224 225 226 229 231 231 234 237 237 240 246 249 249 250 255 259 268 274 270 269 270 270 271 276 285 287 273 264 258 257 256 254 251 244 231
316 314 312 309 308 310 310 311 315 312 310 310 307 304 301 299 302 301 300 298 283 261 256 257 255 253 243 231 222 222 226 221 213 211 210 208 205 203 206 209 209 209 211 210 209 211 217 226 232 227 223 223 224 224 223 223 226 229 230 231 236 238 239 243 249 251 255 257 257 269 281 273 266 264 266 267 270 276 281 276 264 255 254 253 251 249 246 237
318 316 314 311 309 309 309 311 316 313 311 310 306 303 299 299 302 302 302 302 292 281 268 256 250 248 245 236 223 218 223 223 215 212 213 212 209 206 207 209 211 212 213 213 212 216 221 226 229 226 224 223 222 224 223 220 223 229 232 232 234 239 241 246 251 258 271 272 262 265 279 274 267 263 266 268 266 269 273 270 266 262 258 252 250 249 246 238
321 319 316 314 312 310 309 310 312 310 310 309 304 300 297 298 301 303 306 305 298 291 275 258 244 237 238 235 224 214 220 226 216 207 211 214 211 211 211 209 211 215 216 213 214 221 225 226 226 224 224 223 221 224 224 220 220 227 234 233 234 239 242 246 250 257 270 273 267 266 264 273 275 266 261 262 260 260 263 265 266 264 260 255 253 251 246 239
323 321 319 317 315 313 312 309 309 310 312 307 299 295 292 295 298 305 312 305 297 288 267 251 224 222 230 228 218 208 214 224 215 206 209 211 209 210 214 213 212 215 215 211 215 224 226 224 224 225 225 222 220 224 225 220 217 226 234 234 234 238 241 245 250 255 262 271 275 271 262 266 273 266 258 254 255 257 256 258 261 258 255 254 254 253 249 243
324 322 320 319 319 317 317 313 309 311 313 305 294 288 285 286 285 300 320 305 282 259 249 233 204 208 217 216 210 205 207 215 214 208 207 210 209 208 212 215 216 218 215 210 215 226 229 224 225 225 222 221 224 226 227 222 218 225 235 237 238 240 243 246 248 253 261 271 271 265 255 253 263 265 264 261 259 257 253 251 251 252 258 258 254 256 254 249
323 322 319 319 320 320 320 318 312 310 309 302 288 276 272 268 258 258 306 263 243 220 224 215 204 209 213 210 204 202 204 208 212 205 201 206 209 209 212 215 217 221 220 217 220 227 232 231 232 230 224 227 234 232 229 224 222 229 235 239 244 243 243 242 239 247 257 259 257 254 245 249 263 264 263 263 259 251 246 247 250 254 264 270 264 261 259 254
322 321 318 318 319 320 321 320 315 309 305 299 283 266 253 238 227 208 203 226 232 228 224 214 205 205 209 205 199 201 202 204 210 198 196 202 206 207 212 215 216 220 222 222 223 227 233 235 234 232 231 237 243 237 228 224 226 232 233 228 234 234 230 234 237 242 253 253 251 249 244 250 270 265 259 257 253 247 246 248 251 255 260 266 269 265 262 256
321 320 317 317 318 319 321 320 316 311 305 295 273 247 233 220 205 194 219 234 236 231 215 210 207 207 211 203 196 200 200 200 202 192 193 198 200 202 206 209 210 214 221 224 225 227 229 233 233 232 235 238 240 237 233 228 224 227 225 215 215 220 218 231 238 233 242 250 242 244 245 241 248 256 258 256 252 248 248 248 247 250 253 258 264 264 262 258
321 319 317 317 317 320 322 323 320 313 307 291 260 232 215 206 207 213 216 220 242 234 207 205 204 207 214 209 201 200 198 199 197 190 194 197 198 201 202 204 203 200 210 219 222 226 225 228 232 235 238 234 230 230 230 230 226 220 215 208 207 210 211 226 229 225 239 243 229 237 239 234 241 251 258 260 257 250 245 244 244 247 250 253 259 261 262 262
321 318 317 317 317 320 321 323 322 315 309 287 252 227 207 200 223 226 218 214 244 234 203 206 201 199 209 213 207 200 199 204 201 191 196 199 199 201 202 206 206 201 202 210 214 219 222 227 231 232 236 234 227 218 214 219 220 214 206 200 200 198 200 218 218 225 247 242 232 234 240 247 253 260 265 264 263 258 250 244 242 243 247 251 254 256 261 267
321 317 315 316 317 318 319 321 322 314 309 282 244 219 206 210 226 227 224 231 243 243 224 220 204 195 208 219 213 205 201 206 207 202 201 200 199 200 202 205 210 209 208 209 211 211 210 221 227 225 227 231 227 222 219 219 219 216 210 205 208 209 207 213 211 220 253 239 201 203 219 245 248 257 266 265 265 263 257 250 244 243 244 247 252 256 259 267
323 318 315 315 315 316 317 319 320 314 307 277 237 215 211 219 225 244 250 239 245 249 242 238 227 216 231 236 223 211 203 202 206 205 204 201 199 199 201 203 207 210 211 212 211 211 210 220 226 224 225 229 227 225 225 222 220 220 215 212 217 217 214 219 235 214 233 301 200 197 216 238 238 244 252 257 262 261 259 256 250 247 245 248 255 256 258 265
324 319 315 314 313 314 314 315 317 313 302 276 243 225 221 224 229 251 264 250 260 269 257 247 244 243 250 246 230 220 207 200 202 200 198 201 201 200 200 201 204 208 210 211 210 207 208 222 228 225 224 228 228 226 221 214 211 211 208 210 218 220 218 222 244 227 225 265 232 216 235 246 254 261 253 245 250 253 254 255 252 249 248 250 255 256 257 261
325 322 318 316 316 315 312 312 313 310 302 276 250 239 232 229 233 245 259 262 268 290 292 265 247 243 249 246 229 221 214 201 196 193 191 194 199 201 200 202 205 207 209 211 214 213 204 215 228 225 224 227 227 228 225 220 217 209 204 207 211 217 221 222 233 233 223 250 239 223 242 248 247 259 260 252 249 249 251 254 254 252 250 249 252 254 257 255
329 327 323 321 321 316 311 312 310 310 309 276 251 249 245 237 236 242 256 267 264 274 292 283 256 245 246 250 226 209 205 200 191 186 185 186 192 198 199 202 206 208 210 210 212 216 213 213 225 223 224 228 223 220 218 220 223 220 218 214 203 201 206 206 214 231 219 234 250 228 242 246 236 238 249 254 252 251 252 254 255 255 252 248 247 250 253 249
332 330 327 325 324 317 312 312 312 316 314 272 255 257 255 247 241 242 255 270 272 272 278 275 261 256 253 259 250 214 198 192 187 181 182 186 188 193 196 199 205 209 210 209 209 211 213 214 212 208 216 221 214 207 203 207 215 221 225 219 206 208 202 197 204 212 209 224 250 236 235 249 250 250 250 251 251 249 250 253 255 256 254 252 248 247 248 247
334 331 330 331 327 320 317 314 315 323 315 256 251 256 259 260 253 248 256 271 277 274 272 268 258 258 262 263 262 244 224 209 194 184 185 189 186 188 194 195 201 209 209 208 209 209 209 212 208 197 202 206 205 203 202 203 206 210 212 204 202 210 206 201 211 213 210 223 234 240 252 256 262 265 259 255 252 249 251 254 256 257 257 255 251 247 245 244
337 334 333 334 332 324 321 321 320 326 317 257 259 261 265 275 270 258 258 266 274 272 269 269 262 260 266 267 267 260 252 257 243 210 188 185 180 181 193 194 195 204 206 205 208 209 208 207 201 192 194 201 206 208 210 213 214 212 209 204 204 205 195 190 212 213 216 226 217 229 270 260 223 219 241 226 237 250 256 256 254 255 254 253 250 245 243 242
342 341 338 337 339 334 329 329 325 324 323 298 294 285 276 284 283 267 261 262 266 265 260 265 265 263 264 265 266 263 258 262 263 242 200 182 182 175 181 190 189 185 190 196 204 209 209 207 203 200 200 203 209 214 214 218 222 220 219 216 212 208 200 197 208 208 209 222 229 240 271 264 253 260 263 256 252 260 268 262 251 247 246 244 243 241 240 240
347 348 343 341 345 342 333 331 328 331 333 312 294 293 286 284 283 273 263 259 256 250 244 243 247 252 254 252 250 249 246 243 246 235 209 186 183 178 165 174 182 175 175 183 194 203 207 207 205 205 211 209 209 214 216 219 221 220 222 220 214 210 209 212 221 219 209 210 212 224 253 251 256 290 277 235 242 260 277 276 259 253 247 241 237 234 235 239
347 350 349 348 349 345 339 342 352 352 348 334 307 292 283 278 277 270 254 249 244 225 212 219 222 225 236 240 231 221 218 220 222 215 201 187 179 183 173 161 167 168 169 174 183 195 201 203 199 195 205 210 208 215 217 218 220 219 220 220 216 216 217 219 223 225 222 214 208 215 238 227 208 204 153 164 246 262 271 267 267 269 253 241 235 232 235 239
345 347 353 357 353 348 352 355 356 350 340 338 333 307 291 292 297 285 252 227 224 218 208 202 202 204 218 227 223 212 205 208 212 207 202 197 191 193 191 180 169 159 164 169 178 188 193 193 191 192 201 203 201 209 209 207 212 216 219 221 220 219 218 219 222 220 221 220 215 219 227 215 207 222 230 247 259 267 266 263 275 277 271 264 246 232 234 237
347 347 351 1 4 352 353 349 345 343 334 333 339 326 313 320 331 318 288 203 175 199 205 195 183 186 198 201 204 212 207 203 206 209 208 206 203 205 208 205 196 170 167 164 163 177 182 183 190 200 214 213 189 188 201 208 213 212 212 215 217 217 216 219 222 221 220 221 223 228 232 235 237 236 238 248 253 259 259 262 270 262 278 306 283 247 239 238
350 350 350 357 2 353 348 341 338 345 339 333 338 337 327 328 341 338 305 274 205 180 179 181 186 187 189 187 184 192 201 206 216 228 231 228 222 219 221 222 223 225 209 193 169 167 171 175 187 200 216 220 204 189 197 211 219 220 216 211 208 209 213 216 219 223 224 223 229 235 237 240 243 242 244 248 250 254 261 272 269 252 265 302 288 257 251 249
350 351 351 351 349 349 350 346 343 347 342 333 333 334 330 327 338 349 326 285 272 247 195 176 174 167 164 172 178 176 183 206 230 243 248 256 254 245 244 246 249 257 254 240 224 192 172 186 198 201 214 219 209 202 205 214 220 226 225 220 215 211 211 216 219 220 224 227 235 242 243 245 248 250 252 253 253 255 259 265 252 239 254 278 276 263 268 274
348 346 349 348 342 343 343 339 337 339 339 334 328 327 329 329 333 343 346 315 265 266 274 263 211 148 132 150 167 178 195 213 233 243 251 263 269 267 265 262 264 263 259 261 260 244 221 227 225 220 228 227 208 206 223 232 235 234 230 226 225 221 220 223 223 221 224 231 236 241 247 251 252 256 260 261 263 263 261 258 250 246 258 272 272 268 274 277
348 344 343 343 340 340 335 332 333 332 334 335 329 325 328 329 329 335 346 349 219 277 270 252 253 269 278 270 244 215 220 227 238 252 263 269 275 281 277 270 270 267 261 268 274 262 247 241 249 257 262 251 227 217 233 245 251 250 241 232 229 228 228 231 231 227 228 235 237 239 245 250 251 254 259 263 267 268 266 264 261 259 265 271 268 266 269 267
348 344 339 334 334 335 331 330 332 330 332 336 329 323 329 333 327 330 339 328 213 120 137 229 251 266 266 261 254 256 263 263 267 278 284 278 273 275 276 275 277 276 272 274 277 272 265 264 272 288 289 269 252 245 250 261 270 266 252 238 231 233 235 237 237 235 236 240 241 242 248 252 252 255 258 260 264 268 270 270 268 267 269 269 267 265 266 266
346 345 339 328 325 328 329 328 329 330 331 334 326 318 323 330 324 325 328 300 251 292 354 329 294 276 268 258 247 247 253 259 267 276 279 279 276 272 271 273 275 277 278 277 277 275 272 276 284 289 287 276 264 263 274 289 288 268 250 241 236 237 240 242 242 242 243 245 246 249 254 254 254 258 261 262 263 265 268 271 273 275 274 271 270 268 267 268